Satellite: UARS
Catalog number: 21701
Epoch time:      06075.48483715
Element set:     713
Inclination:      056.9784 deg
RA of node:       131.6928 deg
Eccentricity:    0.0110112
Arg of perigee:   034.6642 deg
Mean anomaly:     326.1524 deg
Mean motion:   15.42388045 rev/day
Decay rate:      2.664e-05 rev/day^2
Epoch rev:           79499
Checksum:              307

Satellite: PO-34
Catalog number: 25520
Epoch time:      06074.97521684
Element set:    0433
Inclination:      028.4591 deg
RA of node:       294.7003 deg
Eccentricity:    0.0005116
Arg of perigee:   305.0788 deg
Mean anomaly:     054.9324 deg
Mean motion:   15.16634378 rev/day
Decay rate:       5.02e-06 rev/day^2
Epoch rev:           40788
Checksum:              303

Satellite: ISS
Catalog number: 25544
Epoch time:      06076.01874413
Element set:     544
Inclination:      051.6446 deg
RA of node:       301.7148 deg
Eccentricity:    0.0008820
Arg of perigee:   014.6414 deg
Mean anomaly:     133.3433 deg
Mean motion:   15.74386111 rev/day
Decay rate:     1.0364e-04 rev/day^2
Epoch rev:           41863
Checksum:              268

Satellite: OO-38
Catalog number: 26063
Epoch time:      06075.81802570
Element set:     569
Inclination:      100.1890 deg
RA of node:       350.2405 deg
Eccentricity:    0.0037260
Arg of perigee:   008.1453 deg
Mean anomaly:     352.0319 deg
Mean motion:   14.35756451 rev/day
Decay rate:       -4.1e-07 rev/day^2
Epoch rev:           32141
Checksum:              266

Satellite: NO-45
Catalog number: 26932
Epoch time:      06075.80219410
Element set:     265
Inclination:      067.0559 deg
RA of node:       245.3294 deg
Eccentricity:    0.0007875
Arg of perigee:   281.6566 deg
Mean anomaly:     078.3632 deg
Mean motion:   14.29518311 rev/day
Decay rate:      -1.21e-06 rev/day^2
Epoch rev:           23276
Checksum:              308

Satellite: UWE-1
Catalog number: 28892
Epoch time:      06075.77141669
Element set:     398
Inclination:      098.1736 deg
RA of node:       335.4409 deg
Eccentricity:    0.0018443
Arg of perigee:   097.9741 deg
Mean anomaly:     262.3558 deg
Mean motion:   14.59316171 rev/day
Decay rate:       1.49e-06 rev/day^2
Epoch rev:            2049
Checksum:              336

Satellite: XI-V
Catalog number: 28895
Epoch time:      06075.76603481
Element set:     381
Inclination:      098.1756 deg
RA of node:       335.4832 deg
Eccentricity:    0.0018980
Arg of perigee:   099.0364 deg
Mean anomaly:     261.2993 deg
Mean motion:   14.59371681 rev/day
Decay rate:       2.11e-06 rev/day^2
Epoch rev:            2037
Checksum:              321

Satellite: NCUBE2
Catalog number: 28897
Epoch time:      06074.99893289
Element set:      41
Inclination:      098.1749 deg
RA of node:       334.7261 deg
Eccentricity:    0.0018365
Arg of perigee:   101.4445 deg
Mean anomaly:     258.8826 deg
Mean motion:   14.59524317 rev/day
Decay rate:       1.36e-06 rev/day^2
Epoch rev:            1253
Checksum:              331

Satellite: AO-54
Catalog number: 28933
Epoch time:      06074.99608188
Element set:      52
Inclination:      051.6417 deg
RA of node:       306.4319 deg
Eccentricity:    0.0007326
Arg of perigee:   042.6615 deg
Mean anomaly:     317.4742 deg
Mean motion:   15.77492702 rev/day
Decay rate:     3.2157e-04 rev/day^2
Epoch rev:             631
Checksum:              307

/EX



----
Via the keps mailing list at AMSAT.ORG courtesy of AMSAT-NA.
To unsubscribe, send "unsubscribe keps" to Majordomo@amsat.org

--- ViaMAIL!/WC v1.60d
 * Origin: Chowdanet (401-724-4410) telnet://chowdanet.com  (1:323/120)